Location: Springfield
(37.2150°N, 93.2980°W)
Time: 11:02:42
(UTC-05:00)

Daily predictions for brighter satellites

Satellite Brightness Start Highest point End
(mag) Time Altitude Azimuth Time Altitude Azimuth Time Altitude Azimuth
Meteor 2-1 Rocket 4.3 20:59:04 10° N 21:04:53 88° E 21:10:32 10° S
Cosmos 2100 Rocket 4.5 21:00:09 10° N 21:06:12 45° ENE 21:12:14 10° SSE
USA 186 1.4 21:04:12 10° S 21:06:25 59° W 21:08:35 10° NNW
ERS-1 Rocket 4.3 21:02:57 10° ESE 21:06:58 25° ENE 21:11:01 10° NNE
Milstar 3 Cent rocket 3.8 21:04:07 10° WSW 21:09:30 34° S 21:18:48 10° SE
Cosmos 1408 Rocket 4.5 21:06:43 10° SSE 21:10:26 29° E 21:14:11 10° NNE
Cosmos 2173 Rocket 4.4 21:05:10 10° N 21:11:03 44° E 21:16:59 10° SSE
Cosmos 2221 2.6 21:08:39 10° N 21:13:02 65° E 21:17:22 10° SSE
Cosmos 1242 Rocket 3.0 21:11:09 10° N 21:14:43 44° ENE 21:18:15 10° SSE
Cosmos 2061 Rocket 4.4 21:16:33 10° N 21:22:46 51° E 21:28:59 10° SSE
GPS 2-05 Rocket1 2.8 21:21:41 10° WSW 21:24:41 48° S 21:27:41 10° E
Cosmos 2237 Rocket 4.4 21:21:54 10° NW 21:26:10 23° W 21:30:26 10° SSW
Helios 1B rocket 2.4 21:22:14 10° NNE 21:26:23 82° ESE 21:30:31 10° S
SL-19 R/B 4.4 21:21:16 10° SSE 21:26:55 80° WSW 21:32:30 10° NNW
Cosmos 1674 2.6 21:24:19 10° S 21:28:05 89° E 21:31:50 10° N
SL-14 R/B 4.5 21:27:18 11° SE 21:30:19 24° E 21:33:32 10° NE
ARGOS 4.3 21:27:52 11° ESE 21:32:08 28° ENE 21:36:40 10° N
Abrixas 2.3 21:29:28 10° WSW 21:32:09 78° NNW 21:34:51 10° NE
Tiangong 1 2.6 21:30:55 10° NW 21:33:25 28° N 21:35:54 10° ENE
Meteor 1-21 Rocket 4.2 21:27:53 10° S 21:33:33 84° E 21:39:08 10° N
ERBS 3.4 21:32:19 10° NNW 21:35:26 33° NE 21:37:55 14° ESE
Lacrosse 5 2.0 21:30:38 10° NW 21:35:40 65° NE 21:39:52 15° SE
Abrixas rocket 3.4 21:33:36 10° NW 21:36:36 33° NNE 21:39:18 12° E
SPOT 5 4.2 21:33:34 12° ESE 21:37:05 26° ENE 21:41:17 10° NNE
Cosmos 1603 3.9 21:32:06 10° NNW 21:37:40 58° ENE 21:42:21 14° SE
Cosmos 1356 Rocket 4.0 21:39:35 10° SSW 21:43:47 61° W 21:48:04 10° N
Cosmos 1802 Rocket 4.0 21:38:26 10° N 21:44:34 72° E 21:50:43 10° SSE
Cosmos 1328 4.4 21:42:50 14° SSE 21:45:53 37° E 21:49:37 10° NNE
Helios 1A 3.5 21:41:49 10° S 21:45:53 58° W 21:49:59 10° NNW
Cosmos 1943 4.1 21:44:15 10° N 21:49:26 36° ENE 21:53:12 17° ESE
H-2A R/B 3.4 21:46:14 15° ESE 21:49:35 26° ENE 21:54:01 10° NNE
RESURS DK-1 2.3 21:46:29 10° NNW 21:50:39 78° ENE 21:53:34 19° SSE
Cosmos 1766 Rocket 3.5 21:46:20 10° S 21:50:39 85° W 21:55:01 10° N
Cosmos 1908 3.9 21:48:12 10° NNW 21:51:58 52° W 21:55:42 10° S
SL-16 R/B 3.6 21:48:42 10° NW 21:53:43 33° WSW 21:58:42 10° SSW
Cosmos 1328 Rocket 4.1 21:49:40 10° N 21:53:46 41° E 21:56:12 21° SE
Cosmos 2058 4.3 21:53:41 19° ESE 21:55:02 22° E 21:58:19 10° NE
KORONAS-FOTON 4.3 21:51:50 10° SSW 21:55:34 60° W 21:59:19 10° N
Cosmos 332 Rocket 3.8 21:52:06 10° NNW 21:57:00 70° ENE 22:00:25 20° SSE
Terra 3.9 21:54:55 10° E 21:57:02 13° ENE 21:59:15 10° NE
Cosmos 1939 Rocket 4.4 21:58:06 10° SSW 22:01:44 32° W 22:05:25 10° NNW
Delta 2 Rocket 4.1 21:56:25 10° WSW 22:01:59 71° S 22:07:43 10° E
Cosmos 2016 Rocket 3.9 21:56:34 10° N 22:02:49 84° E 22:08:09 14° S
Cosmos 1515 Rocket 4.2 21:59:22 10° N 22:03:25 37° E 22:05:19 25° SE
Meteor 2-2 Rocket 4.3 21:58:16 10° N 22:04:04 69° E 22:08:26 19° SSE
H-2A R/B 4.4 22:05:14 10° ENE 22:05:45 10° ENE 22:06:15 10° ENE
Cosmos 1743 Rocket 3.5 22:03:05 17° S 22:06:15 61° E 22:10:31 10° NNE
Cosmos 1356 4.2 22:05:30 29° ESE 22:06:19 33° E 22:09:30 10° NNE
YAOGAN 6 3.8 22:03:15 10° S 22:06:40 40° W 22:10:10 10° NNW
Meteor 2-10 4.3 22:01:40 10° N 22:07:18 62° E 22:11:03 22° SSE
USA 245 3.6 22:09:15 29° SE 22:10:49 51° ENE 22:15:08 10° N
Cosmos 1814 Rocket 4.0 22:06:33 10° NNW 22:11:55 81° ENE 22:15:11 24° SSE
Cosmos 1354 Rocket 4.4 22:09:52 21° SSE 22:12:51 41° ESE 22:17:44 10° NNE
Cosmos 1763 Rocket 3.5 22:09:18 10° NNW 22:14:22 65° ENE 22:17:02 27° SE
Cosmos 841 Rocket 3.8 22:10:25 10° N 22:15:32 51° ENE 22:18:06 27° SE
OAO 1 Rocket 4.5 22:10:29 10° W 22:15:48 65° S 22:18:52 25° ESE
MetOp-B 4.1 22:13:39 20° SSE 22:17:23 90° ESE 22:22:46 10° NNW
CZ-4C R/B 3.2 22:17:30 23° ESE 22:17:32 23° ESE 22:21:47 10° ENE
Cosmos 1626 2.9 22:17:24 31° ESE 22:17:48 32° E 22:21:09 10° NNE
NOAA 11 4.3 22:14:33 18° S 22:18:42 75° WSW 22:24:09 10° NNW
Nimbus 7 Rocket 4.5 22:14:33 10° NNE 22:20:28 57° ESE 22:24:33 20° S
Cosmos 1486 Rocket 4.1 22:16:09 10° SSW 22:21:24 80° WNW 22:26:44 10° NNE
YAOGAN 11 4.1 22:19:45 29° SSE 22:22:00 73° ENE 22:26:33 10° N
Cosmos 1726 2.6 22:19:11 10° NNW 22:22:47 55° W 22:24:48 23° SSW
Cosmos 2233 Rocket 4.2 22:19:27 10° N 22:25:30 53° E 22:28:32 29° SE
Cosmos 2228 Rocket 3.1 22:22:58 10° N 22:27:34 86° W 22:29:52 29° S
Cosmos 1703 3.6 22:29:54 42° SE 22:30:36 47° E 22:34:27 10° NNE
USA 234 3.1 22:31:22 10° NE 22:37:53 69° SE 22:44:23 10° SW
Cosmos 2151 2.9 22:36:11 33° S 22:38:06 88° E 22:42:25 10° N
Cosmos 2263 Rocket 2.4 22:36:24 10° SSW 22:41:56 70° WNW 22:47:31 10° NNE
DMSP B5D2-2 4.1 22:38:00 10° NNE 22:43:10 60° E 22:45:03 37° SSE
Meteor 1-11 4.3 22:40:20 18° SSW 22:44:42 81° W 22:50:32 10° N
SPOT 1/Viking Rocket 3.4 22:42:40 36° SSE 22:44:49 87° ENE 22:50:00 10° NNW
Cosmos 1300 3.9 22:41:27 10° NNW 22:45:00 38° W 22:46:42 24° SW
Cosmos 371 Rocket 4.1 22:40:41 10° NNW 22:45:17 46° WSW 22:47:35 26° SSW
ERS-1 Rocket 4.3 22:41:52 15° SSW 22:45:32 34° W 22:50:08 10° NNW
Cosmos 1447 Rocket 4.5 22:43:25 24° S 22:47:31 87° E 22:53:54 10° N
H-2A ROCKET BODY 3.2 22:51:39 10° SW 22:55:39 40° SSE 23:10:17 10° E
SL-08 RB Rocket 4.4 22:57:51 32° SSW 22:59:34 48° W 23:04:02 10° NNW
Meteor 1-27 4.4 22:58:01 10° NNW 23:03:46 69° W 23:06:07 36° SSW
Cosmos 540 Rocket 3.4 22:59:44 10° NNW 23:04:52 69° ENE 23:05:54 54° SE
Cosmos 1707 Rocket 4.3 23:01:21 10° N 23:05:32 38° ENE 23:05:32 38° ENE
Cosmos 1503 Rocket 4.5 23:04:27 18° SW 23:08:12 57° WNW 23:13:19 10° N
CZ-4B R/B 4.1 23:04:00 10° NNE 23:08:50 39° E 23:08:50 39° E
Tiangong 1 3.1 23:06:23 10° WNW 23:07:36 23° WNW 23:07:36 23° WNW
deb Chang Zheng 4 3.9 23:05:12 10° NNE 23:09:09 50° E 23:09:09 50° E
COSMOS 2406 4.4 23:04:34 10° N 23:09:29 29° ENE 23:11:03 25° E
IGS 5A 3.4 23:10:07 70° E 23:10:12 70° ENE 23:14:21 10° N
Cosmos 968 Rocket 3.8 23:12:06 47° ESE 23:12:06 47° ESE 23:17:09 10° NNE
ARGOS 4.4 23:09:23 21° SSW 23:12:12 34° W 23:17:06 10° NNW
Abrixas rocket 4.3 23:10:27 10° WNW 23:11:55 20° W 23:11:55 20° W
Cosmos 1844 Rocket 3.0 23:14:16 43° ESE 23:14:16 43° ESE 23:19:26 10° NE
SPOT 5 4.3 23:12:48 23° SW 23:14:57 32° W 23:19:31 10° NNW
Cosmos 1455 2.3 23:13:42 10° N 23:17:15 73° NNW 23:17:15 73° NNW
Lacrosse 5 3.7 23:14:51 10° WNW 23:18:09 18° WSW 23:19:04 17° SW
Cosmos 1666 Rocket 3.9 23:19:14 54° ENE 23:19:14 54° ENE 23:23:13 10° NNE
Landsat 7 4.1 23:18:24 50° SSW 23:19:18 60° W 23:24:01 10° NNW
CARTOSAT-1 3.4 23:20:20 80° SW 23:20:29 82° WSW 23:24:50 10° NNW
Cosmos 2084 Rocket 4.4 23:19:15 10° NNW 23:22:30 32° NE 23:22:30 32° NE
Cosmos 2285 Rocket 4.0 23:17:34 10° NNW 23:23:56 76° WSW 23:25:48 48° S
Cosmos 2034 Rocket 4.3 23:18:51 10° N 23:25:00 51° E 23:26:10 45° ESE
Cosmos 1891 Rocket 4.5 23:22:15 10° N 23:28:14 61° E 23:29:15 53° ESE
H-2A R/B 3.2 23:26:53 28° SW 23:28:45 37° W 23:33:46 10° NNW
Cosmos 1805 Rocket 3.6 23:29:18 68° W 23:29:27 68° W 23:33:47 10° N
Cosmos 1633 Rocket 3.4 23:32:56 56° NE 23:32:56 56° NE 23:36:36 10° NNE
Terra 2.0 23:33:49 59° SW 23:34:13 61° W 23:38:56 10° NNW
Cosmos 304 Rocket 4.5 23:34:38 10° NNW 23:39:10 42° WSW 23:39:29 42° WSW
H-2A R/B 2.3 23:41:32 62° WNW 23:41:32 62° WNW 23:45:25 10° NNW
Meteor 2-10 Rocket 4.5 23:38:26 10° N 23:43:30 37° ENE 23:43:45 37° E
Delta 2 Rocket 4.0 23:39:06 10° W 23:44:44 72° SSW 23:44:44 72° SSW
CZ-2C R/B 3.9 23:41:26 10° NE 23:44:54 27° ENE 23:44:54 27° ENE
SME Rocket 3.4 23:48:54 59° NNE 23:48:54 59° NNE 23:52:59 10° N
Cosmos 1464 Rocket 4.0 23:42:43 10° N 23:48:54 75° W 23:50:09 57° SSW
CZ-4 R/B 4.2 23:50:33 10° N 23:55:14 55° WNW 23:55:42 52° W
Cosmos 1869 4.3 23:52:05 10° NNW 23:55:02 43° NW 23:55:02 43° NW
